1522508400.52,34913,8.63,72184.0,-1.99,-3.83,-3.79,0,*58
1522508401.71,34914,8.63,72182.5,-2.01,-3.95,-3.83,0,*5F
1522508402.91,34915,8.63,72176.5,-2.01,-3.91,-3.83,0,*5A
1522508404.13,34916,8.63,72180.5,-2.01,-3.91,-3.71,0,*54
1522508405.35,34917,8.63,72178.3,-2.01,-3.83,-3.71,0,*56
1522508406.58,34918,8.63,72180.0,-2.05,-4.13,-4.01,0,*53
1522508407.78,34919,8.63,72182.3,-2.05,-4.21,-4.13,0,*50
1522508409.03,34920,8.63,72202.5,-2.07,-3.83,-3.71,0,*54
1522508410.28,34921,8.63,72206.5,-2.07,-3.75,-3.71,0,*5C
1522508411.53,34922,8.63,72206.8,-2.07,-3.83,-3.71,0,*56
1522508412.74,34923,8.63,72202.8,-2.05,-3.83,-3.75,0,*51
1522508414.01,34924,8.63,72202.0,-2.07,-3.59,-3.59,0,*5D
1522508415.28,34925,8.63,72206.5,-2.07,-3.59,-3.47,0,*53
1522508416.55,34926,8.63,72210.8,-2.07,-3.47,-3.43,0,*5B
1522508417.8,34927,8.63,72208.3,-2.05,-3.47,-3.43,0,*58
1522508419.06,34928,8.63,72204.5,-2.07,-3.55,-3.47,0,*52
1522508420.33,34929,8.63,72194.0,-2.07,-3.67,-3.67,0,*50
1522508421.58,34930,8.63,72192.8,-2.07,-3.83,-3.67,0,*52
1522508422.78,34931,8.63,72190.5,-2.05,-4.13,-4.13,0,*5B
1522508423.98,34932,8.63,72190.5,-2.05,-4.33,-4.25,0,*5F
1522508425.21,34933,8.63,72190.5,-2.07,-4.13,-4.09,0,*50
1522508426.46,34934,8.63,72192.5,-2.07,-4.01,-3.95,0,*56
1522508427.7,34935,8.63,72192.3,-2.09,-3.71,-3.63,0,*50
1522508428.96,34936,8.63,72192.8,-2.07,-3.59,-3.55,0,*52
1522508430.18,34937,8.63,72194.0,-2.09,-3.79,-3.71,0,*59
1522508431.38,34938,8.63,72192.5,-2.09,-3.87,-3.79,0,*5F
1522508432.63,34939,8.63,72192.5,-2.09,-3.63,-3.59,0,*56
1522508433.87,34940,8.63,72192.8,-2.09,-3.59,-3.51,0,*59
1522508435.07,34941,8.63,72196.0,-2.09,-3.39,-3.27,0,*5F
1522508436.27,34942,8.63,72198.0,-2.09,-3.35,-3.27,0,*50
1522508437.46,34943,8.63,72196.8,-2.05,-3.35,-3.31,0,*5A
1522508438.74,34944,8.63,72196.0,-2.07,-3.47,-3.43,0,*5F
1522508439.97,34945,8.63,72194.0,-2.09,-3.51,-3.47,0,*53
1522508441.22,34946,8.63,72198.0,-2.09,-3.59,-3.47,0,*58
1522508442.48,34947,8.63,72200.5,-2.07,-3.59,-3.55,0,*54
1522508443.75,34948,8.63,72192.0,-2.07,-3.59,-3.47,0,*58
1522508444.98,34949,8.63,72192.5,-2.07,-3.35,-3.31,0,*52
1522508446.23,34950,8.63,72194.0,-2.07,-3.43,-3.35,0,*5F
1522508447.47,34951,8.63,72192.5,-2.07,-3.43,-3.31,0,*5A
1522508448.7,34952,8.63,72196.5,-2.07,-3.35,-3.31,0,*58
1522508449.91,34953,8.63,72198.5,-2.07,-3.31,-3.23,0,*5E
1522508451.16,34954,8.63,72202.0,-2.07,-3.43,-3.35,0,*5B
1522508452.43,34955,8.63,72194.5,-2.07,-3.55,-3.43,0,*5C
1522508453.66,34956,8.63,72196.0,-2.07,-3.35,-3.31,0,*5C
1522508454.88,34957,8.63,72194.8,-2.07,-3.31,-3.31,0,*59
1522508456.1,34958,8.63,72192.5,-2.07,-3.31,-3.23,0,*55
1522508457.3,34959,8.63,72198.8,-2.05,-3.31,-3.11,0,*57
1522508458.54,34960,8.63,72200.0,-2.07,-3.43,-3.23,0,*5B
1522508459.73,34961,8.63,72198.5,-2.05,-3.31,-3.23,0,*5D
1522508460.92,34962,8.63,72196.8,-2.05,-3.23,-3.19,0,*54
1522508462.14,34963,8.63,72192.0,-2.07,-3.23,-3.19,0,*57
1522508463.34,34964,8.63,72188.5,-2.05,-3.31,-3.19,0,*51
1522508464.55,34965,8.63,72190.3,-2.05,-3.43,-3.31,0,*5F
1522508465.79,34966,8.63,72194.3,-2.05,-3.55,-3.47,0,*5A
1522508467.04,34967,8.63,72198.8,-2.07,-3.43,-3.35,0,*5B
1522508468.23,34968,8.63,72202.3,-2.05,-3.23,-3.19,0,*5E
1522508469.42,34969,8.63,72200.0,-2.05,-3.23,-3.19,0,*5F
1522508470.66,34970,8.63,72202.0,-2.05,-3.55,-3.43,0,*59
1522508471.9,34971,8.63,72198.8,-2.05,-3.47,-3.43,0,*5B
1522508473.13,34972,8.63,72198.5,-2.05,-3.47,-3.35,0,*59
1522508474.37,34973,8.63,72190.8,-2.05,-3.55,-3.55,0,*5D
1522508475.61,34974,8.63,72190.8,-2.05,-3.47,-3.47,0,*5A
1522508476.81,34975,8.63,72192.8,-2.05,-3.35,-3.31,0,*5F
1522508478.03,34976,8.63,72192.5,-2.05,-3.43,-3.35,0,*59
1522508479.27,34977,8.63,72194.3,-2.01,-3.43,-3.43,0,*5D
1522508480.51,34978,8.63,72188.5,-2.01,-3.63,-3.51,0,*53
1522508481.75,34979,8.63,72194.8,-2.01,-3.55,-3.43,0,*54
1522508482.99,34980,8.63,72192.5,-2.05,-3.59,-3.55,0,*5D
1522508484.21,34981,8.63,72196.5,-2.05,-3.47,-3.35,0,*55
1522508485.45,34982,8.63,72196.3,-2.05,-3.43,-3.43,0,*53
1522508486.67,34983,8.63,72200.3,-2.05,-3.43,-3.31,0,*57
1522508487.87,34984,8.63,72196.0,-2.05,-3.35,-3.23,0,*52
1522508489.06,34985,8.63,72198.3,-2.05,-3.31,-3.19,0,*5E
1522508490.29,34986,8.63,72202.3,-2.05,-3.47,-3.35,0,*52
1522508491.51,34987,8.63,72200.0,-2.05,-3.43,-3.31,0,*53
1522508492.75,34988,8.63,72198.8,-2.05,-3.55,-3.43,0,*5E
1522508493.99,34989,8.63,72200.8,-2.05,-3.59,-3.47,0,*57
1522508495.21,34990,8.63,72200.3,-2.01,-3.51,-3.39,0,*5A
1522508496.4,34991,8.63,72202.5,-2.01,-3.31,-3.31,0,*55
1522508497.6,34992,8.63,72210.3,-2.01,-3.27,-3.27,0,*56
1522508498.79,34993,8.63,72208.5,-2.01,-3.27,-3.19,0,*5A
1522508500.01,34994,8.63,72202.8,-2.01,-3.51,-3.39,0,*5E
1522508501.28,34995,8.63,72202.3,-1.99,-3.51,-3.51,0,*53
1522508502.52,34996,8.63,72202.5,-2.01,-3.51,-3.43,0,*51
1522508503.76,34997,8.63,72194.3,-2.01,-3.51,-3.51,0,*53
1522508505.01,34998,8.63,72194.3,-2.01,-3.63,-3.51,0,*5D
1522508506.25,34999,8.63,72198.0,-2.05,-3.59,-3.55,0,*55
1522508507.48,35000,8.63,72194.3,-2.01,-3.55,-3.51,0,*51
1522508508.7,35001,8.63,72196.3,-2.05,-3.43,-3.31,0,*55
1522508509.94,35002,8.63,72198.8,-2.05,-3.55,-3.55,0,*53
1522508511.16,35003,8.63,72198.0,-2.05,-3.47,-3.31,0,*53
1522508512.38,35004,8.63,72202.3,-2.01,-3.51,-3.39,0,*5F
1522508513.62,35005,8.63,72200.8,-2.01,-3.51,-3.51,0,*50
1522508514.86,35006,8.63,72200.8,-2.01,-3.51,-3.43,0,*50
1522508516.1,35007,8.63,72204.3,-2.01,-3.43,-3.43,0,*52
1522508517.34,35008,8.63,72202.0,-2.05,-3.55,-3.43,0,*5E
1522508518.61,35009,8.63,72200.8,-2.07,-3.55,-3.47,0,*59
1522508519.85,35010,8.63,72206.3,-2.05,-3.55,-3.47,0,*53
1522508521.07,35011,8.63,72200.8,-2.05,-3.47,-3.35,0,*54
1522508522.32,35012,8.63,72198.5,-2.05,-3.47,-3.43,0,*56
1522508523.56,35013,8.63,72194.0,-2.05,-3.55,-3.47,0,*50
1522508524.83,35014,8.63,72198.0,-2.07,-3.47,-3.43,0,*52
1522508526.07,35015,8.63,72198.3,-2.01,-3.63,-3.51,0,*50
1522508527.31,35016,8.63,72200.3,-2.01,-3.63,-3.51,0,*53
1522508528.55,35017,8.63,72198.5,-2.05,-3.59,-3.47,0,*58
1522508529.8,35018,8.63,72196.5,-2.05,-3.59,-3.47,0,*57
1522508531.04,35019,8.63,72200.0,-2.05,-3.59,-3.55,0,*55
1522508532.28,35020,8.63,72194.5,-2.05,-3.59,-3.55,0,*5F
1522508533.53,35021,8.63,72192.8,-2.05,-3.67,-3.59,0,*5F
1522508534.77,35022,8.63,72198.3,-2.05,-3.59,-3.47,0,*5E
1522508536.01,35023,8.63,72200.5,-2.01,-3.67,-3.51,0,*51
1522508537.25,35024,8.63,72198.3,-2.01,-3.55,-3.43,0,*54
1522508538.49,35025,8.63,72200.5,-2.05,-3.59,-3.55,0,*5A
1522508539.73,35026,8.63,72202.5,-2.05,-3.59,-3.47,0,*5A
1522508540.96,35027,8.63,72200.3,-2.05,-3.59,-3.35,0,*5E
1522508542.19,35028,8.63,72200.5,-2.05,-3.55,-3.47,0,*58
1522508543.43,35029,8.63,72204.8,-2.05,-3.55,-3.47,0,*59
1522508544.65,35030,8.63,72202.0,-2.01,-3.43,-3.27,0,*54
1522508545.87,35031,8.63,72206.3,-2.01,-3.43,-3.31,0,*52
1522508547.06,35032,8.63,72206.0,-2.01,-3.39,-3.19,0,*56
1522508548.26,35033,8.63,72208.3,-2.05,-3.31,-3.19,0,*5B
1522508549.47,35034,8.63,72202.5,-2.01,-3.43,-3.31,0,*57
1522508550.69,35035,8.63,72206.0,-2.01,-3.51,-3.31,0,*55
1522508551.91,35036,8.63,72204.3,-2.01,-3.43,-3.27,0,*52
1522508553.12,35037,8.63,72202.3,-2.01,-3.43,-3.31,0,*54
1522508554.32,35038,8.63,72206.5,-2.01,-3.39,-3.27,0,*51
1522508555.54,35039,8.63,72200.5,-2.01,-3.43,-3.31,0,*5A
1522508556.78,35040,8.63,72204.0,-2.01,-3.67,-3.51,0,*54
1522508558.01,35041,8.63,72202.8,-2.01,-3.71,-3.63,0,*53
1522508559.25,35042,8.63,72200.8,-2.01,-3.63,-3.55,0,*56
1522508560.49,35043,8.63,72196.5,-2.05,-3.59,-3.55,0,*5A
1522508561.73,35044,8.63,72200.0,-2.01,-3.55,-3.43,0,*52
1522508562.99,35045,8.63,72204.3,-1.99,-3.55,-3.51,0,*52
1522508564.21,35046,8.63,72200.5,-2.01,-3.51,-3.31,0,*51
1522508565.43,35047,8.63,72202.0,-2.01,-3.43,-3.31,0,*53
1522508566.64,35048,8.63,72202.8,-2.01,-3.43,-3.39,0,*54
1522508567.89,35049,8.63,72198.5,-1.99,-3.51,-3.39,0,*54
1522508569.11,35050,8.63,72198.3,-2.01,-3.51,-3.39,0,*5E
1522508570.33,35051,8.63,72198.8,-2.01,-3.43,-3.39,0,*5C
1522508571.57,35052,8.63,72198.5,-1.99,-3.51,-3.39,0,*5E
1522508572.79,35053,8.63,72200.3,-2.01,-3.51,-3.39,0,*5D
1522508574.04,35054,8.63,72196.8,-1.99,-3.55,-3.39,0,*5C
1522508575.26,35055,8.63,72190.8,-2.01,-3.51,-3.27,0,*54
1522508576.5,35056,8.63,72198.0,-1.99,-3.43,-3.31,0,*51
1522508577.75,35057,8.63,72196.5,-1.99,-3.51,-3.31,0,*53
1522508578.98,35058,8.63,72196.0,-2.01,-3.55,-3.51,0,*5C
1522508580.22,35059,8.63,72188.5,-2.01,-3.67,-3.51,0,*5C
1522508581.48,35060,8.63,72192.3,-1.99,-3.71,-3.63,0,*52
1522508582.72,35061,8.63,72196.0,-2.01,-3.55,-3.43,0,*55
1522508583.99,35062,8.63,72202.3,-1.99,-3.55,-3.43,0,*54
1522508585.22,35063,8.63,72196.5,-2.01,-3.55,-3.51,0,*54
1522508586.49,35064,8.63,72190.0,-1.99,-3.67,-3.55,0,*54
1522508587.72,35065,8.63,72184.8,-2.01,-3.63,-3.63,0,*56
1522508588.96,35066,8.63,72184.8,-2.01,-3.67,-3.63,0,*51
1522508590.2,35067,8.63,72188.5,-2.01,-3.63,-3.51,0,*55
1522508591.45,35068,8.63,72182.5,-1.99,-3.79,-3.63,0,*52
1522508592.68,35069,8.63,72188.0,-2.01,-3.71,-3.63,0,*59
1522508593.88,35070,8.63,72196.0,-2.01,-3.95,-3.83,0,*55
1522508595.12,35071,8.63,72200.0,-2.01,-3.63,-3.55,0,*56
1522508596.36,35072,8.63,72190.8,-2.01,-3.63,-3.55,0,*55
1522508597.58,35073,8.63,72180.3,-2.05,-3.75,-3.67,0,*56
1522508598.8,35074,8.63,72186.0,-2.05,-3.83,-3.71,0,*5F
1522508600.05,35075,8.63,72190.0,-2.05,-3.71,-3.59,0,*59
1522508601.29,35076,8.63,72186.0,-2.05,-3.59,-3.67,0,*5D
1522508602.57,35077,8.63,72172.8,-2.07,-3.67,-3.59,0,*5E
1522508603.79,35078,8.63,72180.5,-2.05,-3.75,-3.67,0,*5D
1522508605.02,35079,8.63,72176.0,-2.07,-3.83,-3.75,0,*54
1522508606.24,35080,8.63,72176.8,-2.05,-3.87,-3.71,0,*50
1522508607.47,35081,8.63,72186.0,-2.07,-3.83,-3.83,0,*5A
1522508608.66,35082,8.63,72180.0,-2.05,-4.09,-3.95,0,*59
1522508609.89,35083,8.63,72184.0,-2.05,-3.75,-3.67,0,*59
1522508611.14,35084,8.63,72178.5,-2.07,-4.01,-3.87,0,*56
1522508612.37,35085,8.63,72184.5,-2.07,-3.95,-3.75,0,*50
1522508613.6,35086,8.63,72184.5,-2.07,-3.95,-3.95,0,*5D
1522508614.85,35087,8.63,72194.5,-2.07,-3.75,-3.67,0,*5F
1522508616.13,35088,8.63,72190.3,-2.07,-3.59,-3.59,0,*53
1522508617.4,35089,8.63,72192.3,-2.07,-3.67,-3.59,0,*5F
1522508618.67,35090,8.63,72188.8,-2.07,-3.67,-3.59,0,*57
1522508619.94,35091,8.63,72190.5,-2.07,-3.71,-3.59,0,*51
1522508621.18,35092,8.63,72190.8,-2.09,-3.63,-3.63,0,*56
1522508622.45,35093,8.63,72182.8,-2.07,-3.55,-3.47,0,*5A
1522508623.71,35094,8.63,72186.8,-2.07,-3.55,-3.55,0,*5E
1522508624.96,35095,8.63,72186.5,-2.09,-3.63,-3.59,0,*58
1522508626.2,35096,8.63,72196.8,-2.09,-3.63,-3.59,0,*5B
1522508627.47,35097,8.63,72206.8,-2.07,-3.71,-3.67,0,*5A
1522508628.74,35098,8.63,72202.5,-2.07,-3.67,-3.67,0,*52
1522508630.01,35099,8.63,72202.8,-2.07,-3.59,-3.59,0,*53
1522508631.26,35100,8.63,72204.8,-2.09,-3.63,-3.59,0,*55
1522508632.5,35101,8.63,72204.0,-2.09,-3.51,-3.51,0,*5D
1522508633.74,35102,8.63,72204.3,-2.09,-3.51,-3.51,0,*5E
1522508634.99,35103,8.63,72202.8,-2.09,-3.59,-3.59,0,*5F
1522508636.26,35104,8.63,72208.5,-2.07,-3.47,-3.47,0,*56
1522508637.53,35105,8.63,72208.8,-2.07,-3.47,-3.43,0,*53
1522508638.77,35106,8.63,72204.0,-2.07,-3.43,-3.31,0,*51
1522508640.02,35107,8.63,72202.8,-2.07,-3.43,-3.35,0,*54
1522508641.29,35108,8.63,72204.5,-2.07,-3.55,-3.47,0,*59
1522508642.55,35109,8.63,72206.8,-2.07,-3.55,-3.47,0,*58
1522508643.82,35110,8.63,72204.5,-2.07,-3.55,-3.55,0,*53
1522508645.09,35111,8.63,72214.5,-2.07,-3.59,-3.55,0,*5E
1522508646.34,35112,8.63,72210.8,-2.07,-3.47,-3.35,0,*54
1522508647.59,35113,8.63,72210.0,-2.07,-3.47,-3.35,0,*55
1522508648.83,35114,8.63,72212.3,-2.07,-3.43,-3.31,0,*52
1522508650.1,35115,8.63,72210.8,-2.07,-3.59,-3.47,0,*59
1522508651.35,35116,8.63,72210.5,-2.05,-3.71,-3.59,0,*5D
1522508652.57,35117,8.63,72204.3,-2.05,-3.75,-3.67,0,*55
1522508653.84,35118,8.63,72204.8,-2.07,-3.71,-3.59,0,*51
1522508655.11,35119,8.63,72200.8,-2.07,-3.59,-3.55,0,*56
1522508656.38,35120,8.63,72200.0,-2.07,-3.71,-3.59,0,*5A
1522508657.65,35121,8.63,72194.8,-2.07,-3.59,-3.55,0,*5D
1522508658.9,35122,8.63,72190.0,-2.09,-3.63,-3.51,0,*5D
1522508660.14,35123,8.63,72186.8,-2.07,-3.55,-3.35,0,*55
1522508661.39,35124,8.63,72188.0,-2.07,-3.43,-3.31,0,*51
1522508662.61,35125,8.63,72190.0,-2.07,-3.35,-3.23,0,*52
1522508663.85,35126,8.63,72190.3,-2.07,-3.43,-3.31,0,*53
1522508665.12,35127,8.63,72192.3,-2.07,-3.55,-3.55,0,*57
1522508666.38,35128,8.63,72188.5,-2.07,-3.67,-3.55,0,*59
1522508667.65,35129,8.63,72190.0,-2.07,-3.71,-3.67,0,*5E
1522508668.92,35130,8.63,72184.0,-2.07,-3.59,-3.55,0,*5D
1522508670.19,35131,8.63,72182.3,-2.07,-3.67,-3.59,0,*5D
1522508671.46,35132,8.63,72186.0,-2.07,-3.67,-3.55,0,*52
1522508672.7,35133,8.63,72194.0,-2.05,-3.67,-3.59,0,*5D
1522508673.98,35134,8.63,72196.5,-2.07,-3.71,-3.59,0,*5F
1522508675.22,35135,8.63,72194.0,-2.05,-3.59,-3.47,0,*59
1522508676.49,35136,8.63,72188.0,-2.07,-3.67,-3.67,0,*57
1522508677.76,35137,8.63,72192.0,-2.07,-3.67,-3.59,0,*5B
1522508678.98,35138,8.63,72188.0,-2.07,-4.13,-4.09,0,*52
1522508680.2,35139,8.63,72192.0,-2.09,-4.05,-4.01,0,*52
1522508681.4,35140,8.63,72192.5,-2.09,-3.87,-3.79,0,*59
1522508682.6,35141,8.63,72192.8,-2.09,-3.87,-3.75,0,*54
1522508683.84,35142,8.63,72190.0,-2.11,-3.79,-3.71,0,*5B
1522508685.06,35143,8.63,72188.8,-2.11,-3.87,-3.75,0,*5F
1522508686.31,35144,8.63,72190.3,-2.09,-3.71,-3.59,0,*56
1522508687.55,35145,8.63,72196.0,-2.11,-3.51,-3.39,0,*5A
1522508688.77,35146,8.63,72194.5,-2.09,-3.51,-3.39,0,*50
1522508690.02,35147,8.63,72194.5,-2.11,-3.59,-3.39,0,*50
1522508691.24,35148,8.63,72190.5,-2.09,-3.47,-3.39,0,*59
1522508692.48,35149,8.63,72192.3,-2.09,-3.71,-3.63,0,*52
1522508693.74,35150,8.63,72198.5,-2.11,-3.71,-3.63,0,*53
1522508694.94,35151,8.63,72192.5,-2.09,-3.87,-3.87,0,*58
1522508696.18,35152,8.63,72202.3,-2.11,-3.75,-3.71,0,*56
1522508697.38,35153,8.63,72200.3,-2.09,-3.87,-3.79,0,*5B
1522508698.62,35154,8.63,72200.5,-2.09,-3.63,-3.63,0,*5D
1522508699.84,35155,8.63,72200.0,-2.09,-3.75,-3.63,0,*5B
1522508701.06,35156,8.63,72202.8,-2.09,-3.75,-3.63,0,*58
1522508702.31,35157,8.63,72206.3,-2.11,-3.47,-3.35,0,*52
1522508703.57,35158,8.63,72200.8,-2.11,-3.59,-3.47,0,*57
1522508704.82,35159,8.63,72196.8,-2.09,-3.59,-3.59,0,*50
1522508706.08,35160,8.63,72204.5,-2.11,-3.71,-3.63,0,*50
1522508707.32,35161,8.63,72216.3,-2.09,-3.59,-3.47,0,*54
1522508708.57,35162,8.63,72198.3,-2.09,-3.59,-3.59,0,*58
1522508709.8,35163,8.63,72192.8,-2.11,-3.91,-3.79,0,*56
1522508711.02,35164,8.63,72186.5,-2.11,-3.87,-3.79,0,*56
1522508712.27,35165,8.63,72180.3,-2.11,-3.63,-3.39,0,*59
1522508713.54,35166,8.63,72188.8,-2.11,-3.51,-3.47,0,*52
1522508714.8,35167,8.63,72200.5,-2.11,-3.59,-3.47,0,*5B
1522508716.07,35168,8.63,72196.0,-2.11,-3.71,-3.59,0,*51
1522508717.34,35169,8.63,72202.0,-2.11,-3.51,-3.47,0,*5D
1522508718.58,35170,8.63,72198.0,-2.09,-3.71,-3.59,0,*51
1522508719.83,35171,8.63,72202.0,-2.11,-3.75,-3.71,0,*57
1522508721.09,35172,8.63,72196.8,-2.11,-3.63,-3.51,0,*51
1522508722.34,35173,8.63,72194.0,-2.09,-3.59,-3.51,0,*50
1522508723.6,35174,8.63,72194.8,-2.11,-3.51,-3.47,0,*51
1522508724.82,35175,8.63,72192.3,-2.09,-3.79,-3.71,0,*56
1522508726.07,35176,8.63,72198.3,-2.11,-4.05,-4.01,0,*50
1522508727.3,35177,8.63,72200.0,-2.13,-3.83,-3.79,0,*52
1522508728.51,35178,8.63,72196.8,-2.13,-4.09,-3.95,0,*5A
1522508729.76,35179,8.63,72190.8,-2.11,-3.75,-3.63,0,*5C
1522508731.03,35180,8.63,72194.8,-2.11,-3.59,-3.59,0,*5D
1522508732.3,35181,8.63,72194.8,-2.13,-3.63,-3.51,0,*5F
1522508733.56,35182,8.63,72190.0,-2.13,-3.67,-3.55,0,*5C
1522508734.82,35183,8.63,72198.8,-2.13,-3.55,-3.51,0,*58
1522508736.1,35184,8.63,72200.3,-2.11,-3.63,-3.59,0,*50
1522508737.32,35185,8.63,72198.0,-2.09,-3.75,-3.63,0,*56
1522508738.59,35186,8.63,72204.5,-2.11,-3.63,-3.59,0,*52
1522508739.86,35187,8.63,72204.5,-2.11,-3.63,-3.51,0,*5B
1522508741.11,35188,8.63,72198.3,-2.11,-3.75,-3.63,0,*52
1522508742.37,35189,8.63,72198.5,-2.11,-3.71,-3.63,0,*57
1522508743.64,35190,8.63,72192.3,-2.11,-3.59,-3.59,0,*5C
1522508744.89,35191,8.63,72188.8,-2.11,-3.79,-3.71,0,*55
1522508746.15,35192,8.63,72194.8,-2.11,-3.71,-3.71,0,*5E
1522508747.42,35193,8.63,72196.0,-2.11,-3.71,-3.59,0,*55
1522508748.64,35194,8.63,72202.5,-2.09,-3.79,-3.63,0,*5A
1522508749.86,35195,8.63,72196.8,-2.09,-3.79,-3.71,0,*58
1522508751.08,35196,8.63,72198.5,-2.13,-3.95,-3.79,0,*5A
1522508752.31,35197,8.63,72192.5,-2.13,-3.79,-3.75,0,*55
1522508753.56,35198,8.63,72194.0,-2.13,-3.79,-3.67,0,*59
1522508754.8,35199,8.63,72188.5,-2.13,-3.75,-3.67,0,*54
1522508756.03,35200,8.63,72188.0,-2.13,-3.83,-3.83,0,*54
1522508757.26,35201,8.63,72184.0,-2.13,-3.95,-3.79,0,*57
1522508758.49,35202,8.63,72184.0,-2.11,-3.91,-3.79,0,*52
1522508759.71,35203,8.63,72184.3,-2.13,-3.95,-3.91,0,*53
1522508760.94,35204,8.63,72186.3,-2.15,-4.01,-3.95,0,*5C
1522508762.17,35205,8.63,72188.3,-2.13,-3.91,-3.83,0,*52
1522508763.37,35206,8.63,72188.3,-2.15,-3.95,-3.87,0,*57
1522508764.57,35207,8.63,72184.8,-2.15,-3.95,-3.87,0,*56
1522508765.8,35208,8.63,72184.8,-2.15,-4.01,-3.87,0,*53
1522508767.02,35209,8.63,72190.0,-2.15,-3.79,-3.71,0,*53
1522508768.25,35210,8.63,72194.0,-2.15,-3.79,-3.71,0,*5B
1522508769.45,35211,8.63,72194.0,-2.15,-3.87,-3.83,0,*56
1522508770.69,35212,8.63,72194.3,-2.15,-3.71,-3.67,0,*56
1522508771.93,35213,8.63,72194.3,-2.13,-3.79,-3.67,0,*59
1522508773.17,35214,8.63,72190.8,-2.15,-3.67,-3.55,0,*56
1522508774.44,35215,8.63,72192.5,-2.13,-3.55,-3.51,0,*54
1522508775.66,35216,8.63,72196.0,-2.15,-3.47,-3.35,0,*50
1522508776.93,35217,8.63,72192.5,-2.13,-3.63,-3.51,0,*53
1522508778.17,35218,8.63,72190.8,-2.15,-3.59,-3.47,0,*54
1522508779.39,35219,8.63,72186.5,-2.13,-3.39,-3.31,0,*54
1522508780.66,35220,8.63,72190.0,-2.13,-3.63,-3.63,0,*56
1522508781.88,35221,8.63,72194.3,-2.13,-3.83,-3.75,0,*5E
1522508783.15,35222,8.63,72182.3,-2.13,-3.67,-3.63,0,*50
1522508784.39,35223,8.63,72178.3,-2.15,-3.67,-3.55,0,*52
1522508785.63,35224,8.63,72182.5,-2.15,-3.59,-3.55,0,*58
1522508786.88,35225,8.63,72182.3,-2.13,-3.75,-3.67,0,*50
1522508788.12,35226,8.63,72180.3,-2.15,-3.71,-3.71,0,*56
1522508789.36,35227,8.63,72184.8,-2.15,-3.47,-3.43,0,*53
1522508790.63,35228,8.63,72180.8,-2.13,-3.51,-3.51,0,*5E
1522508791.87,35229,8.63,72182.0,-2.13,-3.79,-3.67,0,*50
1522508793.14,35230,8.63,72186.3,-2.13,-3.67,-3.63,0,*53
1522508794.4,35231,8.63,72190.3,-2.13,-3.67,-3.67,0,*56
1522508795.64,35232,8.63,72194.8,-2.15,-3.71,-3.67,0,*54
1522508796.9,35233,8.63,72200.3,-2.13,-3.67,-3.63,0,*50
1522508798.13,35234,8.63,72198.8,-2.15,-3.47,-3.35,0,*50
1522508799.32,35235,8.63,72200.3,-2.15,-3.35,-3.31,0,*50
1522508800.54,35236,8.63,72206.0,-2.13,-3.31,-3.19,0,*5B
1522508801.76,35237,8.63,72198.5,-2.13,-3.39,-3.31,0,*58
1522508802.98,35238,8.63,72194.8,-2.13,-3.31,-3.31,0,*5F
1522508804.2,35239,8.63,72196.5,-2.13,-3.39,-3.31,0,*56
1522508805.44,35240,8.63,72198.0,-2.13,-3.43,-3.39,0,*5D
1522508806.71,35241,8.63,72200.8,-2.13,-3.51,-3.43,0,*52
1522508807.97,35242,8.63,72206.0,-2.13,-3.63,-3.63,0,*52
1522508809.24,35243,8.63,72198.8,-2.13,-3.51,-3.43,0,*50
1522508810.47,35244,8.63,72198.0,-2.13,-3.31,-3.27,0,*53
1522508811.68,35245,8.63,72194.0,-2.13,-3.31,-3.19,0,*5F
1522508812.88,35246,8.63,72192.8,-2.15,-3.35,-3.31,0,*54
1522508814.1,35247,8.63,72192.3,-2.11,-3.23,-3.11,0,*54
1522508815.28,35248,8.63,72198.3,-2.09,-3.23,-3.15,0,*56
1522508816.51,35249,8.63,72190.8,-2.11,-3.15,-3.03,0,*5C
1522508817.71,35250,8.63,72192.3,-2.09,-3.15,-3.03,0,*5D
1522508818.93,35251,8.63,72194.3,-2.11,-3.11,-2.99,0,*53
1522508820.13,35252,8.63,72198.5,-2.09,-3.11,-2.99,0,*59
1522508821.32,35253,8.63,72198.3,-2.09,-3.11,-3.03,0,*5A
1522508822.55,35254,8.63,72196.8,-2.11,-3.15,-3.03,0,*50
1522508823.74,35255,8.63,72206.0,-2.09,-3.03,-3.03,0,*5F
1522508824.92,35256,8.63,72204.3,-2.09,-2.91,-2.91,0,*5C
1522508826.15,35257,8.63,72202.3,-2.07,-3.07,-2.95,0,*59
1522508827.35,35258,8.63,72200.8,-2.05,-3.19,-3.07,0,*51
1522508828.57,35259,8.63,72200.8,-2.07,-3.11,-3.07,0,*5A
1522508829.8,35260,8.63,72200.3,-2.07,-3.11,-3.07,0,*50
1522508831.02,35261,8.63,72198.5,-2.07,-3.11,-2.99,0,*57
1522508832.22,35262,8.63,72196.0,-2.05,-3.11,-3.07,0,*50
1522508833.44,35263,8.63,72200.0,-2.07,-3.19,-3.11,0,*5C
1522508834.67,35264,8.63,72206.3,-2.07,-3.31,-3.19,0,*59
1522508835.87,35265,8.63,72204.0,-2.05,-3.31,-3.11,0,*52
1522508837.09,35266,8.63,72194.8,-2.07,-3.31,-3.19,0,*5B
1522508838.34,35267,8.63,72194.5,-2.07,-3.47,-3.31,0,*51
1522508839.56,35268,8.63,72190.0,-2.07,-3.35,-3.23,0,*58
1522508840.78,35269,8.63,72192.5,-2.05,-3.43,-3.31,0,*59
1522508842.02,35270,8.63,72186.8,-2.05,-3.55,-3.43,0,*53
1522508843.29,35271,8.63,72192.3,-2.07,-3.47,-3.43,0,*53
1522508844.56,35272,8.63,72194.3,-2.07,-3.55,-3.43,0,*53
1522508845.78,35273,8.63,72194.5,-2.07,-3.31,-3.23,0,*56
1522508847.0,35274,8.63,72196.5,-2.07,-3.19,-3.11,0,*5A
1522508848.22,35275,8.63,72200.5,-2.07,-3.31,-3.31,0,*53
1522508849.45,35276,8.63,72204.8,-2.07,-3.35,-3.35,0,*50
1522508850.67,35277,8.63,72202.8,-2.07,-3.19,-3.23,0,*58
1522508851.86,35278,8.63,72200.8,-2.05,-3.31,-3.19,0,*56
1522508853.05,35279,8.63,72200.0,-2.05,-3.23,-3.11,0,*5C
1522508854.26,35280,8.63,72200.3,-2.01,-3.15,-2.95,0,*56
1522508855.45,35281,8.63,72202.0,-2.05,-3.11,-3.07,0,*5D
1522508856.65,35282,8.63,72202.3,-2.05,-3.19,-3.07,0,*56
1522508857.84,35283,8.63,72194.0,-2.05,-3.23,-3.11,0,*59
1522508859.04,35284,8.63,72194.0,-2.05,-3.35,-3.23,0,*58
1522508860.27,35285,8.63,72194.5,-2.05,-3.55,-3.47,0,*5D
1522508861.52,35286,8.63,72198.3,-2.05,-3.71,-3.59,0,*57
1522508862.72,35287,8.63,72194.0,-2.05,-3.35,-3.35,0,*5C
1522508863.91,35288,8.63,72200.8,-2.05,-3.23,-3.19,0,*5A
1522508865.1,35289,8.63,72204.0,-2.05,-3.19,-3.11,0,*5A
1522508866.29,35290,8.63,72196.3,-2.05,-3.23,-3.19,0,*53
1522508867.49,35291,8.63,72198.5,-2.05,-3.35,-3.31,0,*5F
1522508868.68,35292,8.63,72202.0,-2.01,-3.31,-3.31,0,*5C
1522508869.88,35293,8.63,72202.0,-2.01,-3.27,-3.19,0,*50
1522508871.08,35294,8.63,72200.5,-2.01,-3.39,-3.27,0,*55
1522508872.27,35295,8.63,72202.0,-2.01,-3.39,-3.31,0,*53
1522508873.48,35296,8.63,72200.8,-2.01,-3.43,-3.31,0,*5D
1522508874.72,35297,8.63,72204.5,-2.05,-3.67,-3.55,0,*5C
1522508875.94,35298,8.63,72206.0,-2.01,-3.51,-3.31,0,*50
1522508877.13,35299,8.63,72202.3,-2.05,-3.31,-3.23,0,*50
1522508878.33,35300,8.63,72202.8,-2.05,-3.31,-3.11,0,*50
1522508879.52,35301,8.63,72200.3,-2.05,-3.23,-3.19,0,*5A
1522508880.74,35302,8.63,72198.3,-2.05,-3.43,-3.35,0,*51
1522508881.98,35303,8.63,72206.8,-2.05,-3.55,-3.55,0,*51
1522508883.2,35304,8.63,72206.0,-2.05,-3.47,-3.31,0,*57
1522508884.39,35305,8.63,72204.8,-2.05,-3.23,-3.11,0,*56
1522508885.64,35306,8.63,72200.5,-2.05,-3.55,-3.43,0,*53
1522508886.88,35307,8.63,72198.8,-2.05,-3.59,-3.55,0,*59
1522508888.07,35308,8.63,72206.5,-2.05,-3.35,-3.23,0,*5D
1522508889.31,35309,8.63,72206.0,-2.01,-3.55,-3.51,0,*5B
1522508890.55,35310,8.63,72204.5,-2.01,-3.55,-3.51,0,*53
1522508891.78,35311,8.63,72206.0,-2.01,-3.67,-3.55,0,*57
1522508893.02,35312,8.63,72200.3,-2.01,-3.67,-3.55,0,*54
1522508894.24,35313,8.63,72202.0,-2.05,-3.75,-3.71,0,*54
1522508895.46,35314,8.63,72196.3,-2.05,-3.75,-3.71,0,*53
1522508896.68,35315,8.63,72196.0,-2.05,-3.83,-3.71,0,*5B
1522508897.95,35316,8.63,72206.8,-2.07,-3.71,-3.71,0,*57
1522508899.22,35317,8.63,72202.8,-2.07,-3.71,-3.59,0,*5C
1522508900.49,35318,8.63,72198.5,-2.07,-3.67,-3.59,0,*54
1522508901.73,35319,8.63,72198.5,-2.07,-3.75,-3.75,0,*58
1522508902.96,35320,8.63,72196.3,-2.07,-3.87,-3.75,0,*5F
1522508904.23,35321,8.63,72198.0,-2.07,-3.71,-3.59,0,*59
1522508905.47,35322,8.63,72198.8,-2.09,-3.71,-3.59,0,*54
1522508906.74,35323,8.63,72202.0,-2.07,-3.71,-3.67,0,*56
1522508908.0,35324,8.63,72202.8,-2.07,-3.71,-3.67,0,*51
1522508909.24,35325,8.63,72204.0,-2.09,-3.71,-3.59,0,*53
1522508910.44,35326,8.63,72204.3,-2.09,-3.87,-3.79,0,*5B
1522508911.64,35327,8.63,72204.3,-2.09,-3.87,-3.75,0,*56
1522508912.88,35328,8.63,72208.3,-2.09,-3.51,-3.47,0,*53
1522508914.1,35329,8.63,72208.3,-2.11,-3.27,-3.27,0,*5C
1522508915.32,35330,8.63,72210.5,-2.09,-3.47,-3.39,0,*54
1522508916.57,35331,8.63,72204.5,-2.07,-3.43,-3.31,0,*57
1522508917.81,35332,8.63,72210.5,-2.09,-3.59,-3.51,0,*57
1522508919.01,35333,8.63,72208.3,-2.09,-3.39,-3.39,0,*5E